CZ-6A DEB, 61456

Orbit data source: Space-Track

CZ-6A DEB, 61456 is space debris in LEO originally from a launch on Tue, 06 Aug 2024 UTC launched from the Taiyaun Space Center, China (TSC). Debris objects in space refer to the collection of defunct objects orbiting the Earth. Examples of debris include non-operational satellites, rocket bodies, and fragments generated from explosions, collisions, or faulty payload assembly.

Loading next visibility...
Identifier
61456, 2024-140ZN
Orbit
LEO
Country
Flag of CNCN / PRC
Related business
Manufacturer
SAST
Mission
Spacecraft
Bus & Motor
Unknown
Mass
Unknown
Launch date (UTC)
2024-08-06 (2 years ago)
Launch vehicle
Unknown
Launch site
Taiyaun Space Center, China (TSC)
Object type
Payload
Rocket body
Debris
Shape & HBR
Unknown shape, 0.1 m
Radar Cross Section
Medium (>0.1 m² and <1 m²)

Expand to show TLE details & history
Last TLE update: 16 hours ago

TLE from 16 hours ago
0 CZ-6A DEB
1 61456U 24140ZN  26171.25602169  .00002545  00000-0  49305-3 0  9991
2 61456  89.1100 278.8883 0098351 243.7679 115.3398 14.59950022 93493
Epoch: 2026-06-20T06:08Z
TLE epoch observation values (Epoch: 2026-06-20T06:08:40.274Z)
Latitude
-0.00009°
Longitude
-81.75277°
Altitude
726.774 km
Speed
7.476 km/s
True Right ascension
18h 35m 33s
True Declination
0° 00' 00"
Sunlit
Object was in full shadow at epoch
Visualization orbit readout
Latitude
Unknown
Longitude
Unknown
Altitude
Unknown
Speed
Unknown
Apparent Right ascension
Unknown
Apparent Declination
Unknown
Sunlit
N/A
Visualization observer readout
Local Sidereal Time
08:42:18
Azimuth
Unknown
Elevation
Unknown
Doppler factor
Unknown
Orbital elements
Apogee altitude
759.747 km
Perigee altitude
620.71 km
Semi-major axis
7,068.366 km
Eccentricity
0.00984
Inclination
89.11°
RAAN
278.8883°
Arg. of periapsis
243.7679°
True anomaly
116.353°
Mean anomaly
115.3398°
Eccentric anomaly
115.84694°
Mean motion
3.65229 °/min
Orbital period
98.57 mins
BSTAR
0.00049305
Loading maneuver chart data...
Computing Atmospheric mass density...
Loading historical data...
Loading historical data...
Loading historical data...
Loading historical data...
Loading historical data...
Loading historical data...
Loading historical data...

Documentation

Showing up to 5 results
|